EW1707 Weather Reports


time (UTC)temp
F
wind
direction
speed
knots
gust
knots
rain 1hr
in
rain 24hr
in
rain mn
in
humidity
%
barometer
mb
20210801201540 59 360 2.6 7.0 0.01 0.38 0.01 71 1027.3
20210801200057 60 360 1.7 5.2 0.01 0.38 0.01 72 1027.3
20210801194609 60 360 2.6 6.1 0.01 0.38 0.01 70 1027.5
20210801193108 61 32 1.7 7.0 0.00 0.37 0.00 68 1027.6
20210801191559 61 360 0.0 3.5 0.00 0.37 0.00 68 1027.7
20210801190145 62 33 0.9 7.0 0.00 0.37 0.00 70 1028.0
20210801184534 61 42 2.6 7.0 0.00 0.37 0.00 71 1028.1
20210801183050 61 360 0.0 4.3 0.00 0.37 0.00 72 1028.3
20210801181549 61 360 0.9 6.1 0.00 0.37 0.00 70 1028.5
20210801180032 60 94 1.7 7.0 0.00 0.37 0.00 70 1028.6
20210801174539 60 93 0.9 7.0 0.00 0.37 0.00 73 1028.7
20210801173027 59 55 2.6 6.1 0.00 0.37 0.00 72 1028.9
20210801171522 59 53 1.7 5.2 0.00 0.37 0.00 73 1029.0
20210801170051 59 37 2.6 6.1 0.00 0.37 0.00 69 1029.1
20210801164526 59 59 0.9 7.0 0.00 0.37 0.00 67 1029.0
20210801163019 59 77 1.7 5.2 0.00 0.37 0.00 63 1029.2
20210801161538 58 61 0.9 6.1 0.00 0.37 0.00 69 1029.1
20210801160009 56 23 0.9 4.3 0.00 0.37 0.00 73 1029.0
20210801154519 55 40 1.7 7.0 0.00 0.37 0.00 78 1028.9
20210801151649 52 288 0.0 0.0 0.00 0.37 0.00 90 1028.7
20210801150158 51 288 0.0 0.0 0.00 0.37 0.00 93 1028.6
20210801144742 51 288 0.0 0.9 0.00 0.37 0.00 95 1028.5
20210801143136 50 287 0.0 0.0 0.00 0.37 0.00 95 1028.6
20210801141822 50 287 0.0 0.0 0.00 0.37 0.00 96 1028.5
20210801140201 50 287 0.0 2.6 0.00 0.37 0.00 96 1028.5
20210801134555 49 287 0.9 2.6 0.00 0.37 0.00 96 1028.4
20210801133322 49 287 0.0 3.5 0.00 0.37 0.00 96 1028.4
20210801131622 49 288 0.9 2.6 0.00 0.37 0.00 96 1028.3
20210801130218 49 288 0.0 0.9 0.00 0.37 0.00 96 1028.2
20210801124615 49 288 0.0 0.0 0.00 0.37 0.00 96 1028.1
20210801123131 49 288 0.0 0.0 0.00 0.37 0.00 96 1028.1
20210801121630 49 288 0.0 0.0 0.00 0.37 0.00 96 1028.0
20210801120224 49 288 0.0 2.6 0.00 0.37 0.00 96 1028.0
20210801114613 49 288 0.0 0.0 0.00 0.37 0.00 96 1027.9
20210801113204 49 288 0.0 0.0 0.00 0.37 0.00 95 1027.7
20210801111629 49 288 0.0 0.0 0.00 0.37 0.00 95 1027.8
20210801110105 49 288 0.0 0.0 0.00 0.37 0.00 95 1027.7
20210801104556 49 288 0.0 2.6 0.00 0.37 0.00 95 1027.6
20210801103057 49 288 0.0 2.6 0.00 0.37 0.00 95 1027.6
20210801101600 49 287 0.0 3.5 0.00 0.37 0.00 95 1027.4
20210801100120 49 288 0.9 3.5 0.00 0.37 0.00 95 1027.4
20210801094641 49 288 0.9 3.5 0.00 0.37 0.00 95 1027.2
20210801093105 49 288 1.7 5.2 0.00 0.37 0.00 95 1027.1
20210801091559 50 294 0.9 4.3 0.00 0.37 0.00 95 1027.1
20210801090047 50 294 0.9 4.3 0.00 0.37 0.00 95 1027.0
20210801084614 50 294 0.9 3.5 0.00 0.38 0.00 95 1026.9
20210801083033 50 294 1.7 3.5 0.00 0.38 0.00 95 1026.9
20210801081609 50 294 0.9 3.5 0.00 0.38 0.00 95 1027.0
20210801080058 51 294 1.7 3.5 0.00 0.38 0.00 95 1027.2
20210801074540 51 294 0.0 2.6 0.00 0.41 0.00 95 1027.2
20210801073029 51 294 0.9 4.3 0.00 0.41 0.00 95 1027.3
20210801071530 51 295 0.9 3.5 0.00 0.41 0.00 95 1027.6
20210801070057 51 295 0.0 2.6 0.00 0.41 0.00 95 1027.7
20210801064526 51 295 0.9 4.3 0.00 0.42 0.00 95 1027.9
20210801063020 51 295 0.9 3.5 0.00 0.42 0.00 95 1028.0
20210801061519 51 295 0.0 2.6 0.00 0.42 0.00 95 1028.0
20210801060025 51 295 0.9 2.6 0.00 0.42 0.00 95 1027.9
20210801054520 51 295 0.0 0.0 0.00 0.42 0.42 95 1027.9
20210801053038 51 295 0.0 0.0 0.00 0.42 0.42 95 1027.8
20210801051525 51 295 0.0 0.0 0.00 0.42 0.42 95 1027.7
20210801050018 51 295 0.0 0.0 0.00 0.42 0.42 95 1027.8
20210801044518 51 295 0.0 1.7 0.00 0.52 0.42 95 1027.9
20210801043017 51 297 0.0 0.0 0.00 0.52 0.42 94 1027.9
20210801041519 51 297 0.0 0.0 0.00 0.52 0.42 94 1027.9
20210801040058 51 297 0.0 3.5 0.00 0.52 0.42 94 1027.8
20210801034518 51 297 0.9 3.5 0.00 0.56 0.42 94 1027.7
20210801033015 51 297 1.7 3.5 0.00 0.56 0.42 94 1027.5
20210801031529 52 297 0.9 2.6 0.00 0.56 0.42 94 1027.4
20210801030005 51 297 1.7 3.5 0.00 0.56 0.42 94 1027.2
20210801024510 52 297 1.7 4.3 0.00 0.56 0.42 94 1026.9
20210801023031 52 297 0.9 3.5 0.00 0.56 0.42 94 1026.7
20210801021501 52 298 1.7 5.2 0.00 0.56 0.42 94 1026.5
20210801020211 52 300 2.6 4.3 0.00 0.56 0.42 94 1026.2
20210801014623 52 303 2.6 4.3 0.01 0.56 0.42 94 1026.0
20210801013157 52 306 1.7 5.2 0.02 0.56 0.42 93 1026.0
20210801011714 52 36 1.7 4.3 0.04 0.56 0.42 93 1026.0
20210801010131 52 36 0.0 3.5 0.09 0.56 0.42 93 1025.9
20210801004811 52 36 0.0 0.9 0.12 0.55 0.41 93 1025.7
20210801003135 53 36 0.0 2.6 0.15 0.54 0.40 93 1025.4
20210801001640 53 31 0.0 7.0 0.18 0.52 0.38 93 1025.2
20210801000111 53 329 0.0 2.6 0.17 0.47 0.33 92 1025.0
20210731234626 54 329 1.7 5.2 0.18 0.43 0.28 92 1024.8
20210731233051 54 329 0.9 5.2 0.16 0.39 0.25 92 1024.7
20210731231709 54 331 0.0 3.5 0.14 0.34 0.20 91 1024.6
20210731230150 55 331 1.7 6.1 0.11 0.30 0.16 90 1024.4
20210731224616 55 291 0.0 5.2 0.06 0.25 0.11 89 1024.1
20210731223110 56 292 0.0 5.2 0.04 0.23 0.09 88 1024.1
20210731221653 57 326 2.6 9.6 0.00 0.19 0.05 86 1024.0
20210731220053 58 40 0.0 4.3 0.00 0.19 0.05 83 1023.7
20210731214603 58 43 0.0 4.3 0.00 0.19 0.05 81 1023.5
20210731213103 59 360 0.0 4.3 0.00 0.19 0.05 82 1023.5
20210731211558 58 360 0.0 0.0 0.00 0.19 0.05 84 1023.5
20210731210118 58 43 0.0 1.7 0.00 0.19 0.05 85 1023.5
20210731204554 58 360 0.0 4.3 0.00 0.19 0.05 84 1023.6
20210731203145 58 40 0.0 4.3 0.00 0.19 0.05 84 1023.4